Погода в Корсакове

Россия / Калужская область     55°09′08″N   36°58′49″E
темп.,
°C
ветер,
м/с
пор.,
м/с
влажн.,
%
обл.,
%
осадки,
мм/ч
давл.,
гПа
погр.,
м
26 июля, пн
пн2600:00+16зюз116285 0.0 102222
03:00+13зюз11747 0.0 102311
06:00+14ююз22704 0.0 102330
09:00+21ююз344690 0.0 1023422
12:00+24ююз233946 0.0 10231107
15:00+25юз234099 0.0 10222071
18:00+22зюз115847 0.0 102131
21:00+20юз246324 0.0 102266
27 июля, вт
вт2700:00+18зюз2270100 0.0 102241
03:00+16зсз22833 0.4 102226
06:00+16зсз11850 0.0 102311
09:00+23юз11530 0.0 1022386
12:00+28зюз133216 0.0 10212655
15:00+27з223633 0.0 10202153
18:00+22юз36625 0.1 1019250
21:00+18зюз227879 0.1 101923
28 июля, ср
ср2800:00+17ююз118111 0.1 101913
03:00+15ююз22935 0.1 101825
06:00+16ю119259 0.4 101743
09:00+22ююз2364100 0.4 1016399
12:00+24юз3454100 0.0 1015899
15:00+18ююз2894100 0.7 1014342
18:00+17юв31096100 0.8 1012519
21:00+17ююв3998100 1.6 1009402
29 июля, чт
чт2900:00+17ю2899100 2.4 1008289
03:00+17з3999100 2.5 1007398
06:00+18з4119496 0.0 1007598
09:00+21з612700 0.0 1007942
12:00+26зсз6104734 0.0 10072090
15:00+27зсз694029 0.0 10062507
18:00+26з58468 0.0 10071959
21:00+19зюз39690 0.0 1007163
30 июля, пт
пт3000:00+17з26790 0.0 1009103
03:00+16з26774 0.0 1009116
06:00+16з27770 0.0 1010160
09:00+23зюз34530 0.0 1011550
12:00+27зюз47424 0.0 10101903
15:00+27зюз464769 0.0 10091811
18:00+25зюз235497 0.0 1009341
21:00+19юз228919 0.1 101044